[[{"header":{"parameterUnit":"m.s-1","parameterCategory":1,"la1":30.2991,"la2":30.254,"lo1":-89.0895,"lo2":-89.0444,"dy":0.0017,"dx":0.0017,"nx":28,"ny":28,"refTime":"2025-02-25T03:00:00:Z","depth":0,"parameterNumber":2,"parameterNumberName":"U-component_of_WINDS"},"data":[0,0,0,0,0,0,0,0,0,0,0,0,0,0,0,0,0,0,0,0,0,0,0,0,0,0,0,0,0,0,0,0,0,0,0,0,0,0,0,0,0,0,0,0,0,0,0,0,0,0,0,0,0,0,0,0,0,0,-0.4807,-0.4808,0,-0.4889,-0.489,-0.4891,-0.4938,-0.4939,-0.4939,-0.4939,-0.5024,-0.5026,-0.5028,0,0,0,0,0,0,0,0,0,0,0,0,0,-0.4694,-0.4695,-0.4807,-0.4808,-0.4809,-0.4889,-0.489,-0.4891,-0.4938,-0.4939,-0.4939,-0.4939,-0.5023,-0.5025,-0.5028,0,0,0,0,0,0,0,0,0,0,0,0,0,-0.4756,-0.4696,-0.4807,-0.4842,-0.4846,-0.4889,-0.489,-0.4892,-0.4938,-0.4939,-0.4939,-0.4939,-0.5022,-0.5025,-0.5028,-0.5042,0,0,-0.5038,-0.5039,0,0,0,0,0,0,0,0,-0.4752,-0.476,-0.4836,-0.484,-0.4844,-0.4904,-0.4881,-0.4942,-0.4938,-0.4903,-0.4939,-0.4939,-0.4984,-0.499,-0.5005,-0.5046,-0.505,-0.5038,-0.504,-0.5041,-0.5042,0,0,0,0,0,0,0,-0.4748,-0.4757,-0.484,-0.4837,-0.4842,-0.4855,-0.4864,-0.4893,-0.4941,-0.4906,-0.491,-0.4919,-0.4986,-0.5002,-0.5007,-0.5051,-0.5038,-0.5041,-0.5043,-0.5044,-0.5111,-0.5111,0,0,0,0,0,0,-0.4738,-0.4753,-0.4837,-0.4842,-0.4798,-0.4857,-0.4867,-0.4884,-0.4941,-0.495,-0.4919,-0.4921,-0.4996,-0.5003,-0.501,-0.5032,-0.5041,-0.5044,-0.5046,-0.5111,-0.5111,-0.5111,0,0,0,0,0,0,-0.4735,-0.4745,-0.4834,-0.4799,-0.4811,-0.4858,-0.4878,-0.4886,-0.4902,-0.495,-0.4959,-0.4926,-0.4997,-0.5006,-0.5034,-0.5035,-0.5046,-0.5049,-0.5111,-0.5111,-0.5111,-0.5074,0,0,0,0,0,0,-0.4732,-0.4744,-0.4749,-0.4798,-0.4812,-0.4856,-0.4878,-0.4887,-0.4907,-0.491,-0.4959,-0.4967,-0.4997,-0.503,-0.5038,-0.504,-0.5051,-0.5111,-0.5111,-0.5111,-0.5076,-0.5073,-0.507,0,0,0,0,0,-0.4727,-0.4735,-0.4749,-0.4758,-0.482,-0.4855,-0.4864,-0.4898,-0.4907,-0.4913,-0.4944,-0.4966,-0.5034,-0.5032,-0.5041,-0.5045,-0.5111,-0.5111,-0.5111,-0.5077,-0.5073,-0.5071,0,0,0,0,0,0,-0.4683,-0.4742,-0.4758,-0.4781,-0.4813,-0.4863,-0.4872,-0.4893,-0.4923,-0.4925,-0.4967,-0.4978,-0.5003,-0.5027,-0.5023,-0.5063,-0.5075,-0.5077,-0.5046,-0.5043,-0.5041,-0.5035,-0.5054,0,0,0,0,0,-0.4677,-0.47,-0.475,-0.4766,-0.4781,-0.4824,-0.484,-0.4864,-0.4899,-0.4913,-0.4947,-0.498,-0.5009,-0.5028,-0.5057,-0.5079,-0.5092,-0.5087,-0.5084,-0.5082,-0.5083,-0.5099,-0.5098,-0.511,-0.511,-0.511,0,0,-0.4662,-0.4697,-0.4709,-0.4758,-0.4785,-0.481,-0.4835,-0.4859,-0.4878,-0.4917,-0.4946,-0.4972,-0.5013,-0.5039,-0.5052,-0.5059,-0.5082,-0.5082,-0.5079,-0.5082,-0.5098,-0.5097,-0.5096,-0.511,-0.511,-0.511,0,0,-0.4649,-0.4677,-0.4694,-0.4722,-0.4764,-0.4792,-0.4796,-0.4844,-0.4863,-0.4893,-0.4923,-0.4947,-0.4996,-0.5024,-0.5045,-0.5045,-0.5067,-0.5053,-0.504,-0.5055,-0.5054,-0.5053,-0.5055,-0.5055,-0.5054,-0.5054,-0.5054,0,-0.4626,-0.4664,-0.47,-0.4724,-0.4745,-0.4782,-0.48,-0.4825,-0.4874,-0.4889,-0.4897,-0.4961,-0.499,-0.5024,-0.5025,-0.504,-0.5047,-0.5048,-0.5051,-0.5051,-0.5051,-0.5053,-0.5053,-0.5052,-0.5053,-0.5053,-0.5053,0,-0.4634,-0.466,-0.4669,-0.4716,-0.4739,-0.4759,-0.48,-0.4819,-0.4841,-0.4869,-0.4901,-0.4938,-0.4977,-0.4987,-0.5008,-0.5025,-0.5028,-0.5043,-0.5057,-0.5047,-0.505,-0.5051,-0.505,-0.505,-0.5051,-0.5051,0,0,-0.4595,-0.4663,-0.4666,-0.4688,-0.4738,-0.4759,-0.4783,-0.482,-0.4836,-0.4869,-0.4891,-0.4933,-0.4948,-0.4971,-0.4997,-0.501,-0.501,-0.5023,-0.5025,-0.502,-0.5032,-0.5021,-0.5021,-0.5024,-0.5025,-0.5025,-0.5029,0,-0.4589,-0.4632,-0.4667,-0.4697,-0.4723,-0.4759,-0.478,-0.4813,-0.4841,-0.4867,-0.4898,-0.4928,-0.4944,-0.4959,-0.4973,-0.5006,-0.5013,-0.5007,-0.5046,-0.5047,-0.5035,-0.5022,-0.501,-0.5012,-0.503,-0.503,-0.503,0,-0.4588,-0.4621,-0.4654,-0.4703,-0.4715,-0.4732,-0.4771,-0.4796,-0.4835,-0.4854,-0.4882,-0.4909,-0.4937,-0.4948,-0.4988,-0.4983,-0.5002,-0.5021,-0.5022,-0.5027,-0.5038,-0.5028,-0.5013,-0.5013,-0.5032,-0.5032,-0.5032,0,-0.4557,-0.4609,-0.4636,-0.4654,-0.4712,-0.4724,-0.4749,-0.4788,-0.481,-0.4844,-0.4859,-0.4895,-0.4916,-0.4944,-0.4982,-0.4986,-0.5018,-0.5032,-0.5036,-0.5035,-0.5041,-0.5041,-0.503,-0.5052,-0.5052,-0.5052,-0.5052,0,-0.4548,-0.4567,-0.4623,-0.464,-0.4663,-0.4704,-0.4726,-0.4754,-0.4789,-0.4813,-0.4847,-0.4869,-0.4916,-0.4944,-0.4973,-0.5003,-0.5012,-0.5029,-0.5037,-0.5027,-0.5024,-0.5039,-0.504,-0.5052,-0.5052,-0.5052,-0.5052,0,-0.4517,-0.4555,-0.4588,-0.464,-0.4654,-0.4668,-0.4714,-0.4732,-0.4762,-0.4792,-0.4802,-0.4849,-0.4884,-0.4924,-0.4972,-0.4992,-0.502,-0.5031,-0.5006,-0.5011,-0.5013,-0.5013,-0.5012,-0.5015,-0.5034,-0.5034,-0.5034,0,-0.4509,-0.4524,-0.4579,-0.4597,-0.4621,-0.465,-0.4672,-0.4713,-0.4735,-0.4783,-0.4796,-0.4833,-0.4865,-0.492,-0.4959,-0.4997,-0.501,-0.5007,-0.5015,-0.5005,-0.5011,-0.501,-0.5012,-0.5004,-0.5004,-0.5004,-0.5003,0,-0.449,-0.4509,-0.4539,-0.4577,-0.4603,-0.4634,-0.4668,-0.4681,-0.4729,-0.4753,-0.4789,-0.4814,-0.4864,-0.4901,-0.4944,-0.4971,-0.4996,-0.5001,-0.5004,-0.4993,-0.4979,-0.4988,-0.5001,-0.5,-0.5001,-0.5001,-0.5001,-0.5001,-0.4471,-0.4488,-0.4529,-0.4562,-0.4592,-0.4623,-0.4643,-0.4676,-0.4707,-0.475,-0.4773,-0.4809,-0.4851,-0.4911,-0.4938,-0.4968,-0.4976,-0.498,-0.4981,-0.4982,-0.498,-0.4974,-0.4976,-0.4976,-0.4976,-0.4976,-0.4976,0,-0.4456,-0.4484,-0.4515,-0.456,-0.4587,-0.4608,-0.4647,-0.4668,-0.4699,-0.4736,-0.4767,-0.481,-0.4847,-0.489,-0.4931,-0.4946,-0.4959,-0.4956,-0.4955,-0.4961,-0.4969,-0.4963,-0.4945,-0.4945,-0.4945,-0.4945,-0.4945,-0.4945,-0.4451,-0.448,-0.4504,-0.4549,-0.4578,-0.4613,-0.4634,-0.4663,-0.4693,-0.4739,-0.477,-0.4798,-0.4838,-0.4881,-0.4917,-0.4929,-0.4943,-0.4936,-0.4951,-0.4958,-0.4961,-0.4963,-0.4957,-0.4939,-0.4939,-0.4941,-0.4941,-0.4941]},{"header":{"parameterUnit":"m.s-1","parameterCategory":1,"la1":30.2991,"la2":30.254,"lo1":-89.0895,"lo2":-89.0444,"dy":0.0017,"dx":0.0017,"nx":28,"ny":28,"refTime":"2025-02-25T03:00:00:Z","depth":0,"parameterNumber":3,"parameterNumberName":"V-component_of_WINDS"},"data":[0,0,0,0,0,0,0,0,0,0,0,0,0,0,0,0,0,0,0,0,0,0,0,0,0,0,0,0,0,0,0,0,0,0,0,0,0,0,0,0,0,0,0,0,0,0,0,0,0,0,0,0,0,0,0,0,0,0,1.3073,1.3073,0,1.3038,1.3037,1.3037,1.2971,1.297,1.2968,1.2967,1.2929,1.293,1.293,0,0,0,0,0,0,0,0,0,0,0,0,0,1.3082,1.3082,1.3073,1.3073,1.3072,1.3038,1.3037,1.3037,1.2971,1.2969,1.2968,1.2966,1.2929,1.293,1.293,0,0,0,0,0,0,0,0,0,0,0,0,0,1.3065,1.3082,1.3073,1.3035,1.3032,1.3038,1.3037,1.3037,1.2971,1.2969,1.2968,1.2966,1.2929,1.293,1.293,1.297,0,0,1.2931,1.2931,0,0,0,0,0,0,0,0,1.3067,1.3065,1.3041,1.3038,1.3034,1.3007,1.3026,1.3014,1.2972,1.2994,1.2967,1.2965,1.2957,1.2955,1.2952,1.2968,1.2966,1.2931,1.2931,1.2931,1.2931,0,0,0,0,0,0,0,1.3068,1.3066,1.3059,1.3041,1.3037,1.3019,1.3015,1.3024,1.2987,1.2992,1.2987,1.2984,1.2954,1.2952,1.2951,1.2966,1.2931,1.2931,1.2931,1.2931,1.3009,1.3011,0,0,0,0,0,0,1.3075,1.3068,1.306,1.3058,1.3046,1.3021,1.3016,1.3017,1.2986,1.298,1.2986,1.2981,1.2952,1.295,1.2949,1.2991,1.2931,1.2931,1.2931,1.3007,1.3009,1.3012,0,0,0,0,0,0,1.3075,1.3075,1.3062,1.3062,1.3059,1.3023,1.3025,1.3018,1.3015,1.2981,1.2974,1.299,1.2951,1.2949,1.2964,1.2989,1.2931,1.2932,1.3005,1.3008,1.3011,1.3077,0,0,0,0,0,0,1.3076,1.3075,1.3091,1.3062,1.3059,1.3079,1.3027,1.3018,1.3016,1.301,1.2984,1.2978,1.2949,1.2964,1.2965,1.2988,1.2932,1.3003,1.3006,1.301,1.3072,1.3082,1.309,0,0,0,0,0,1.3076,1.3111,1.3092,1.3091,1.3078,1.308,1.3078,1.3045,1.3018,1.3033,1.3011,1.2979,1.2987,1.2967,1.2966,1.299,1.3001,1.3005,1.3009,1.3068,1.308,1.3089,0,0,0,0,0,0,1.3143,1.3107,1.3085,1.3112,1.31,1.3069,1.3086,1.3058,1.3053,1.3047,1.3006,1.3001,1.3021,1.3007,1.2986,1.3025,1.2988,1.2993,1.3033,1.3044,1.3052,1.3054,1.2932,0,0,0,0,0,1.3161,1.3167,1.3135,1.3162,1.3157,1.3123,1.3123,1.3098,1.3083,1.3078,1.3057,1.3044,1.3042,1.3043,1.304,1.3071,1.3062,1.3087,1.3095,1.3103,1.3106,1.3118,1.3127,1.3026,1.3026,1.3025,0,0,1.3198,1.3179,1.3185,1.3175,1.3162,1.3168,1.3119,1.3128,1.3131,1.3079,1.3092,1.3076,1.3058,1.308,1.3089,1.307,1.3133,1.3108,1.3114,1.3114,1.3123,1.3133,1.3141,1.3028,1.3028,1.3027,0,0,1.3268,1.3255,1.3275,1.3263,1.3245,1.3222,1.3227,1.32,1.3187,1.32,1.316,1.3163,1.3164,1.3151,1.3145,1.3209,1.3178,1.321,1.3254,1.3266,1.3274,1.328,1.33,1.3308,1.3214,1.3214,1.3214,0,1.3316,1.3323,1.3288,1.3299,1.3294,1.3248,1.3266,1.3257,1.3238,1.3236,1.3214,1.3212,1.3197,1.3214,1.3229,1.3227,1.3229,1.3211,1.3276,1.3282,1.3288,1.3306,1.3314,1.3218,1.3217,1.3217,1.3216,0,1.3382,1.3388,1.3406,1.3388,1.3386,1.3401,1.3367,1.3368,1.3344,1.3323,1.3335,1.3315,1.3306,1.3309,1.3286,1.3322,1.331,1.3283,1.3245,1.3302,1.3318,1.3325,1.3223,1.3222,1.322,1.3219,0,0,1.3492,1.3455,1.3461,1.3452,1.3428,1.3431,1.3443,1.3434,1.3435,1.3425,1.3431,1.3432,1.3406,1.3399,1.3374,1.3385,1.3432,1.3356,1.3354,1.3368,1.3468,1.3487,1.3496,1.3413,1.3414,1.3415,1.3468,0,1.3554,1.3572,1.354,1.3565,1.3568,1.3524,1.3533,1.3519,1.35,1.3499,1.3477,1.3477,1.3444,1.3439,1.3448,1.3425,1.3452,1.3421,1.3417,1.3417,1.342,1.3504,1.3525,1.3576,1.3475,1.3476,1.3477,0,1.3628,1.362,1.3646,1.3618,1.3618,1.3627,1.3616,1.3616,1.3598,1.3583,1.3575,1.3545,1.3553,1.3518,1.3526,1.3506,1.3502,1.349,1.3492,1.3488,1.3449,1.35,1.3592,1.3599,1.3487,1.3486,1.3486,0,1.3702,1.3698,1.3711,1.3705,1.3674,1.3681,1.3669,1.3649,1.3645,1.3635,1.3632,1.3623,1.3618,1.3611,1.3578,1.3556,1.359,1.3552,1.3575,1.3576,1.3582,1.3582,1.3672,1.3585,1.3585,1.3585,1.3585,0,1.3773,1.3789,1.3744,1.3752,1.3768,1.3732,1.3748,1.3731,1.3714,1.3716,1.3679,1.3682,1.364,1.3638,1.3613,1.3622,1.3621,1.3607,1.36,1.3609,1.3611,1.3604,1.3599,1.3587,1.3586,1.3586,1.3586,0,1.3857,1.3828,1.3839,1.3809,1.3801,1.3814,1.3787,1.3793,1.3771,1.3775,1.3774,1.3739,1.3735,1.3702,1.3691,1.3674,1.3691,1.3679,1.3697,1.3692,1.3715,1.3713,1.3803,1.3811,1.3722,1.3723,1.3723,0,1.3903,1.3914,1.3885,1.3884,1.3873,1.3873,1.3868,1.3833,1.3829,1.3809,1.3816,1.3809,1.3801,1.3796,1.3769,1.3759,1.3744,1.3776,1.3742,1.375,1.3741,1.3739,1.3739,1.3782,1.3784,1.3785,1.3785,0,1.3986,1.3971,1.3966,1.3957,1.3953,1.3943,1.3931,1.3933,1.3893,1.3891,1.3886,1.388,1.3868,1.386,1.3845,1.3831,1.38,1.3797,1.3801,1.3809,1.3818,1.381,1.3714,1.3794,1.3793,1.3793,1.3792,1.3792,1.405,1.4057,1.4037,1.4033,1.402,1.401,1.4012,1.3991,1.3986,1.3973,1.3953,1.395,1.393,1.3907,1.3895,1.3891,1.3874,1.3881,1.3882,1.3884,1.3887,1.3821,1.3889,1.3889,1.3888,1.3888,1.3888,0,1.4129,1.4114,1.411,1.4094,1.4091,1.4064,1.4049,1.4047,1.4046,1.403,1.4022,1.4016,1.4008,1.398,1.3968,1.3971,1.3956,1.3968,1.3966,1.3963,1.3905,1.3901,1.398,1.398,1.398,1.398,1.398,1.398,1.4169,1.4179,1.4161,1.4163,1.4147,1.4145,1.4138,1.4127,1.4114,1.4108,1.4101,1.4084,1.4062,1.4049,1.4039,1.4031,1.4027,1.4044,1.4031,1.3976,1.3967,1.3959,1.3955,1.4044,1.4044,1.4088,1.4089,1.4089]}]]